Time,TemperatureF,DewpointF,PressureIn,WindDirection,WindDirectionDegrees,WindSpeedMPH,WindSpeedGustMPH,Humidity,HourlyPrecipIn,Conditions,Clouds,dailyrainin,SolarRadiationWatts/m^2,SoftwareType,DateUTC
2013-07-06 00:00:00,80.0,72.2,30.12,SW,216,0.0,0.0,77,0.00,,---,0.00,0.00,VWS V14.01,2013-07-06 04:00:00,
2013-07-06 00:01:00,80.0,72.2,30.12,SW,218,0.0,0.0,77,0.00,,---,0.00,0.00,VWS V14.01,2013-07-06 04:01:00,
2013-07-06 00:02:00,79.9,72.1,30.12,WSW,239,0.0,0.0,77,0.00,,---,0.00,0.00,VWS V14.01,2013-07-06 04:02:00,
2013-07-06 00:07:00,80.0,72.2,30.12,SW,223,0.0,0.0,77,0.00,,---,0.00,0.00,VWS V14.01,2013-07-06 04:07:00,
2013-07-06 00:12:00,80.0,72.2,30.12,SW,223,0.0,0.0,77,0.00,,---,0.00,0.00,VWS V14.01,2013-07-06 04:12:00,
2013-07-06 00:17:00,79.8,71.9,30.12,SW,223,0.0,0.0,77,0.00,,---,0.00,0.00,VWS V14.01,2013-07-06 04:17:00,
2013-07-06 00:22:00,79.8,71.9,30.12,SW,230,0.0,0.0,77,0.00,,---,0.00,0.00,VWS V14.01,2013-07-06 04:22:00,
2013-07-06 00:27:00,79.4,71.9,30.12,SW,220,0.0,0.0,78,0.00,,---,0.00,0.00,VWS V14.01,2013-07-06 04:27:00,
2013-07-06 00:32:00,79.3,71.8,30.12,WSW,242,0.0,0.0,78,0.00,,---,0.00,0.00,VWS V14.01,2013-07-06 04:32:00,
2013-07-06 00:37:00,79.4,72.3,30.11,SSW,211,0.0,0.0,79,0.00,,---,0.00,0.00,VWS V14.01,2013-07-06 04:37:00,
2013-07-06 00:42:00,79.2,72.1,30.11,WSW,238,0.0,0.0,79,0.00,,---,0.00,0.00,VWS V14.01,2013-07-06 04:42:00,
2013-07-06 00:47:00,79.1,72.0,30.11,WSW,238,0.0,0.0,79,0.00,,---,0.00,0.00,VWS V14.01,2013-07-06 04:47:00,
2013-07-06 00:52:00,79.0,71.9,30.12,WSW,254,0.0,0.0,79,0.00,,---,0.00,0.00,VWS V14.01,2013-07-06 04:52:00,
2013-07-06 00:57:00,78.9,71.8,30.11,WSW,240,0.0,0.0,79,0.00,,---,0.00,0.00,VWS V14.01,2013-07-06 04:57:00,
2013-07-06 01:02:00,78.9,71.8,30.11,SSW,211,0.0,0.0,79,0.00,,---,0.00,0.00,VWS V14.01,2013-07-06 05:02:00,
2013-07-06 01:07:00,78.8,71.7,30.11,SW,232,0.0,0.0,79,0.00,,---,0.00,0.00,VWS V14.01,2013-07-06 05:07:00,
2013-07-06 01:12:00,78.8,72.1,30.11,WSW,238,0.0,0.0,80,0.00,,---,0.00,0.00,VWS V14.01,2013-07-06 05:12:00,
2013-07-06 01:17:00,78.7,72.0,30.11,WSW,237,0.0,0.0,80,0.00,,---,0.00,0.00,VWS V14.01,2013-07-06 05:17:00,
2013-07-06 01:22:00,78.8,72.1,30.11,SW,221,0.0,0.0,80,0.00,,---,0.00,0.00,VWS V14.01,2013-07-06 05:22:00,
2013-07-06 01:27:00,78.6,71.9,30.11,SW,231,0.0,0.0,80,0.00,,---,0.00,0.00,VWS V14.01,2013-07-06 05:27:00,
2013-07-06 01:32:00,78.5,71.8,30.11,SW,232,0.0,0.0,80,0.00,,---,0.00,0.00,VWS V14.01,2013-07-06 05:32:00,
2013-07-06 01:37:00,78.4,72.1,30.11,SW,232,0.0,0.0,81,0.00,,---,0.00,0.00,VWS V14.01,2013-07-06 05:37:00,
2013-07-06 01:42:00,78.3,72.0,30.11,SW,232,0.0,0.0,81,0.00,,---,0.00,0.00,VWS V14.01,2013-07-06 05:42:00,
2013-07-06 01:47:00,78.6,72.3,30.11,SW,232,0.0,0.0,81,0.00,,---,0.00,0.00,VWS V14.01,2013-07-06 05:47:00,
2013-07-06 01:52:00,78.4,72.1,30.11,SW,228,0.0,0.0,81,0.00,,---,0.00,0.00,VWS V14.01,2013-07-06 05:52:00,
2013-07-06 01:57:00,78.3,72.0,30.11,SW,229,0.0,0.0,81,0.00,,---,0.00,0.00,VWS V14.01,2013-07-06 05:57:00,
2013-07-06 02:02:00,78.1,71.8,30.11,WSW,241,0.0,0.0,81,0.00,,---,0.00,0.00,VWS V14.01,2013-07-06 06:02:00,
2013-07-06 02:07:00,78.2,71.9,30.11,WSW,240,0.0,0.0,81,0.00,,---,0.00,0.00,VWS V14.01,2013-07-06 06:07:00,
2013-07-06 02:12:00,78.0,71.7,30.11,WSW,240,0.0,0.0,81,0.00,,---,0.00,0.00,VWS V14.01,2013-07-06 06:12:00,
2013-07-06 02:17:00,77.8,71.9,30.11,WSW,240,0.0,0.0,82,0.00,,---,0.00,0.00,VWS V14.01,2013-07-06 06:17:00,
2013-07-06 02:22:00,77.7,71.8,30.11,WSW,240,0.0,0.0,82,0.00,,---,0.00,0.00,VWS V14.01,2013-07-06 06:22:00,
2013-07-06 02:27:00,77.7,71.8,30.11,WSW,240,0.0,0.0,82,0.00,,---,0.00,0.00,VWS V14.01,2013-07-06 06:27:00,
2013-07-06 02:32:00,77.5,71.9,30.11,WSW,240,0.0,0.0,83,0.00,,---,0.00,0.00,VWS V14.01,2013-07-06 06:32:00,
2013-07-06 02:37:00,77.4,71.8,30.11,WSW,240,0.0,0.0,83,0.00,,---,0.00,0.00,VWS V14.01,2013-07-06 06:37:00,
2013-07-06 02:42:00,77.2,71.6,30.11,WSW,240,0.0,0.0,83,0.00,,---,0.00,0.00,VWS V14.01,2013-07-06 06:42:00,
2013-07-06 02:47:00,77.3,71.7,30.11,WSW,240,0.0,0.0,83,0.00,,---,0.00,0.00,VWS V14.01,2013-07-06 06:47:00,
2013-07-06 02:52:00,77.2,71.6,30.11,WSW,240,0.0,0.0,83,0.00,,---,0.00,0.00,VWS V14.01,2013-07-06 06:52:00,
2013-07-06 02:57:00,77.1,71.5,30.11,WSW,240,0.0,0.0,83,0.00,,---,0.00,0.00,VWS V14.01,2013-07-06 06:57:00,
2013-07-06 03:02:00,77.0,71.8,30.11,WSW,240,0.0,0.0,84,0.00,,---,0.00,0.00,VWS V14.01,2013-07-06 07:02:00,
2013-07-06 03:07:00,76.9,71.7,30.11,WSW,240,0.0,0.0,84,0.00,,---,0.00,0.00,VWS V14.01,2013-07-06 07:07:00,
2013-07-06 03:12:00,76.9,71.7,30.11,WSW,240,0.0,0.0,84,0.00,,---,0.00,0.00,VWS V14.01,2013-07-06 07:12:00,
2013-07-06 03:17:00,76.9,71.7,30.11,WSW,240,0.0,0.0,84,0.00,,---,0.00,0.00,VWS V14.01,2013-07-06 07:17:00,
2013-07-06 03:22:00,76.9,71.7,30.11,WSW,240,0.0,0.0,84,0.00,,---,0.00,0.00,VWS V14.01,2013-07-06 07:22:00,
2013-07-06 03:27:00,76.9,71.7,30.11,WSW,240,0.0,0.0,84,0.00,,---,0.00,0.00,VWS V14.01,2013-07-06 07:27:00,
2013-07-06 03:32:00,76.8,71.6,30.11,WSW,239,0.0,0.0,84,0.00,,---,0.00,0.00,VWS V14.01,2013-07-06 07:32:00,
2013-07-06 03:37:00,76.7,71.5,30.11,WSW,241,0.0,0.0,84,0.00,,---,0.00,0.00,VWS V14.01,2013-07-06 07:37:00,
2013-07-06 03:42:00,76.9,71.7,30.11,SW,234,0.0,0.0,84,0.00,,---,0.00,0.00,VWS V14.01,2013-07-06 07:42:00,
2013-07-06 03:47:00,76.9,71.7,30.11,WSW,251,0.0,0.0,84,0.00,,---,0.00,0.00,VWS V14.01,2013-07-06 07:47:00,
2013-07-06 03:52:00,76.8,71.6,30.11,WSW,247,0.0,0.0,84,0.00,,---,0.00,0.00,VWS V14.01,2013-07-06 07:52:00,
2013-07-06 03:57:00,76.7,71.9,30.11,SW,234,0.0,0.0,85,0.00,,---,0.00,0.00,VWS V14.01,2013-07-06 07:57:00,
2013-07-06 04:02:00,76.6,71.8,30.11,SW,234,0.0,0.0,85,0.00,,---,0.00,0.00,VWS V14.01,2013-07-06 08:02:00,
2013-07-06 04:07:00,76.6,71.8,30.11,WSW,244,0.0,0.0,85,0.00,,---,0.00,0.00,VWS V14.01,2013-07-06 08:07:00,
2013-07-06 04:12:00,76.6,71.8,30.11,WSW,241,0.0,0.0,85,0.00,,---,0.00,0.00,VWS V14.01,2013-07-06 08:12:00,
2013-07-06 04:17:00,76.4,71.6,30.11,WSW,240,0.0,0.0,85,0.00,,---,0.00,0.00,VWS V14.01,2013-07-06 08:17:00,
2013-07-06 04:22:00,76.3,71.5,30.11,SW,235,0.0,0.0,85,0.00,,---,0.00,0.00,VWS V14.01,2013-07-06 08:22:00,
2013-07-06 04:27:00,76.4,71.6,30.11,SW,232,0.0,0.0,85,0.00,,---,0.00,0.00,VWS V14.01,2013-07-06 08:27:00,
2013-07-06 04:32:00,76.2,71.7,30.11,SW,234,0.0,0.0,86,0.00,,---,0.00,0.00,VWS V14.01,2013-07-06 08:32:00,
2013-07-06 04:37:00,76.0,71.5,30.11,WSW,240,0.0,0.0,86,0.00,,---,0.00,0.00,VWS V14.01,2013-07-06 08:37:00,
2013-07-06 04:42:00,76.1,71.6,30.11,WSW,240,0.0,0.0,86,0.00,,---,0.00,0.00,VWS V14.01,2013-07-06 08:42:00,
2013-07-06 04:47:00,76.0,71.5,30.11,WSW,240,0.0,0.0,86,0.00,,---,0.00,0.00,VWS V14.01,2013-07-06 08:47:00,
2013-07-06 04:52:00,75.7,71.6,30.11,SW,236,0.0,0.0,87,0.00,,---,0.00,0.00,VWS V14.01,2013-07-06 08:52:00,
2013-07-06 04:57:00,75.6,71.5,30.11,SW,236,0.0,0.0,87,0.00,,---,0.00,0.00,VWS V14.01,2013-07-06 08:57:00,
2013-07-06 05:02:00,75.5,71.7,30.11,SW,236,0.0,0.0,88,0.00,,---,0.00,0.00,VWS V14.01,2013-07-06 09:02:00,
2013-07-06 05:07:00,75.5,71.7,30.11,SW,236,0.0,0.0,88,0.00,,---,0.00,0.00,VWS V14.01,2013-07-06 09:07:00,
2013-07-06 05:12:00,75.5,71.7,30.11,SW,234,0.0,0.0,88,0.00,,---,0.00,0.00,VWS V14.01,2013-07-06 09:12:00,
2013-07-06 05:17:00,75.5,71.7,30.11,SW,233,0.0,0.0,88,0.00,,---,0.00,0.00,VWS V14.01,2013-07-06 09:17:00,
2013-07-06 05:22:00,75.6,71.5,30.10,SW,233,0.0,0.0,87,0.00,,---,0.00,0.00,VWS V14.01,2013-07-06 09:22:00,
2013-07-06 05:27:00,75.5,71.4,30.11,SW,232,0.0,0.0,87,0.00,,---,0.00,0.00,VWS V14.01,2013-07-06 09:27:00,
2013-07-06 05:32:00,75.5,71.4,30.11,WSW,237,0.0,0.0,87,0.00,,---,0.00,0.00,VWS V14.01,2013-07-06 09:32:00,
2013-07-06 05:37:00,75.5,71.7,30.11,SW,232,0.0,0.0,88,0.00,,---,0.00,5.00,VWS V14.01,2013-07-06 09:37:00,
2013-07-06 05:42:00,75.5,71.7,30.11,SW,232,0.0,0.0,88,0.00,,---,0.00,7.00,VWS V14.01,2013-07-06 09:42:00,
2013-07-06 05:47:00,75.5,71.7,30.11,WSW,240,0.0,0.0,88,0.00,,---,0.00,11.00,VWS V14.01,2013-07-06 09:47:00,
2013-07-06 05:52:00,75.3,71.5,30.11,WSW,240,0.0,0.0,88,0.00,,---,0.00,12.00,VWS V14.01,2013-07-06 09:52:00,
2013-07-06 05:57:00,75.2,71.4,30.11,West,263,0.0,0.0,88,0.00,,---,0.00,14.00,VWS V14.01,2013-07-06 09:57:00,
2013-07-06 06:02:00,75.2,71.4,30.11,WSW,244,0.0,0.0,88,0.00,,---,0.00,19.00,VWS V14.01,2013-07-06 10:02:00,
2013-07-06 06:07:00,75.2,71.4,30.12,WSW,244,0.0,0.0,88,0.00,,---,0.00,26.00,VWS V14.01,2013-07-06 10:07:00,
2013-07-06 06:12:00,75.3,71.5,30.12,WSW,243,0.0,0.0,88,0.00,,---,0.00,32.00,VWS V14.01,2013-07-06 10:12:00,
2013-07-06 06:17:00,75.5,71.7,30.12,WSW,243,0.0,0.0,88,0.00,,---,0.00,40.00,VWS V14.01,2013-07-06 10:17:00,
2013-07-06 06:22:00,75.6,71.8,30.12,SW,218,0.0,0.0,88,0.00,,---,0.00,49.00,VWS V14.01,2013-07-06 10:22:00,
2013-07-06 06:27:00,75.7,71.9,30.12,SW,221,0.0,0.0,88,0.00,,---,0.00,60.00,VWS V14.01,2013-07-06 10:27:00,
2013-07-06 06:32:00,75.8,72.0,30.12,SW,234,0.0,0.0,88,0.00,,---,0.00,72.00,VWS V14.01,2013-07-06 10:32:00,
2013-07-06 06:37:00,75.9,72.1,30.12,SW,218,0.0,0.0,88,0.00,,---,0.00,84.00,VWS V14.01,2013-07-06 10:37:00,
2013-07-06 06:42:00,76.1,71.9,30.12,SW,218,0.0,0.0,87,0.00,,---,0.00,100.00,VWS V14.01,2013-07-06 10:42:00,
2013-07-06 06:46:00,76.5,72.3,30.12,SW,231,0.0,0.0,87,0.00,,---,0.00,116.00,VWS V14.01,2013-07-06 10:46:00,
2013-07-06 06:52:00,76.6,72.4,30.12,SW,228,0.0,0.0,87,0.00,,---,0.00,130.00,VWS V14.01,2013-07-06 10:52:00,
2013-07-06 06:57:00,76.8,72.3,30.12,SW,227,0.0,0.0,86,0.00,,---,0.00,146.00,VWS V14.01,2013-07-06 10:57:00,
2013-07-06 07:02:00,77.1,72.6,30.12,WSW,258,0.0,0.0,86,0.00,,---,0.00,162.00,VWS V14.01,2013-07-06 11:02:00,
2013-07-06 07:06:00,77.6,72.7,30.12,WSW,240,0.0,0.0,85,0.00,,---,0.00,176.00,VWS V14.01,2013-07-06 11:06:00,
2013-07-06 07:11:00,78.2,73.0,30.12,SW,223,0.0,0.0,84,0.00,,---,0.00,192.00,VWS V14.01,2013-07-06 11:11:00,
2013-07-06 07:16:00,78.2,73.0,30.12,WSW,244,0.0,0.0,84,0.00,,---,0.00,207.00,VWS V14.01,2013-07-06 11:16:00,
2013-07-06 07:21:00,78.1,72.9,30.12,SW,217,0.0,0.0,84,0.00,,---,0.00,221.00,VWS V14.01,2013-07-06 11:21:00,
2013-07-06 07:26:00,78.3,73.4,30.12,WSW,253,0.0,0.0,85,0.00,,---,0.00,234.00,VWS V14.01,2013-07-06 11:26:00,
2013-07-06 07:31:00,78.8,73.6,30.12,SW,232,0.0,0.0,84,0.00,,---,0.00,246.00,VWS V14.01,2013-07-06 11:31:00,
2013-07-06 07:36:00,78.7,73.1,30.12,WSW,247,0.0,0.0,83,0.00,,---,0.00,264.00,VWS V14.01,2013-07-06 11:36:00,
2013-07-06 07:41:00,78.9,73.7,30.12,West,271,0.0,0.0,84,0.00,,---,0.00,279.00,VWS V14.01,2013-07-06 11:41:00,
2013-07-06 07:46:00,79.3,73.7,30.12,SW,224,0.0,0.0,83,0.00,,---,0.00,297.00,VWS V14.01,2013-07-06 11:46:00,
2013-07-06 07:51:00,79.4,73.8,30.12,WSW,243,0.0,0.0,83,0.00,,---,0.00,316.00,VWS V14.01,2013-07-06 11:51:00,
2013-07-06 07:56:00,79.9,73.9,30.12,SW,234,0.0,0.0,82,0.00,,---,0.00,329.00,VWS V14.01,2013-07-06 11:56:00,
2013-07-06 08:01:00,79.8,73.8,30.12,SSW,211,0.0,0.0,82,0.00,,---,0.00,343.00,VWS V14.01,2013-07-06 12:01:00,
2013-07-06 08:06:00,80.8,74.1,30.12,SW,226,0.0,0.0,80,0.00,,---,0.00,360.00,VWS V14.01,2013-07-06 12:06:00,
2013-07-06 08:11:00,81.1,74.3,30.12,WNW,286,0.0,0.0,80,0.00,,---,0.00,374.00,VWS V14.01,2013-07-06 12:11:00,
2013-07-06 08:16:00,81.7,74.2,30.12,WSW,250,0.0,0.0,78,0.00,,---,0.00,378.00,VWS V14.01,2013-07-06 12:16:00,
2013-07-06 08:21:00,82.3,74.4,30.12,WSW,238,0.0,0.0,77,0.00,,---,0.00,397.00,VWS V14.01,2013-07-06 12:21:00,
2013-07-06 08:26:00,82.1,74.2,30.12,SSW,213,0.0,0.0,77,0.00,,---,0.00,406.00,VWS V14.01,2013-07-06 12:26:00,
2013-07-06 08:31:00,83.2,74.8,30.12,WNW,303,0.0,0.0,76,0.00,,---,0.00,432.00,VWS V14.01,2013-07-06 12:31:00,
2013-07-06 08:36:00,83.7,74.5,30.12,West,272,0.0,0.0,74,0.00,,---,0.00,439.00,VWS V14.01,2013-07-06 12:36:00,
2013-07-06 08:41:00,83.8,74.2,30.12,WNW,292,0.0,0.0,73,0.00,,---,0.00,455.00,VWS V14.01,2013-07-06 12:41:00,
2013-07-06 08:46:00,84.2,74.6,30.12,NNW,331,0.0,0.0,73,0.00,,---,0.00,487.00,VWS V14.01,2013-07-06 12:46:00,
2013-07-06 08:51:00,84.2,73.8,30.12,West,271,0.0,0.0,71,0.00,,---,0.00,489.00,VWS V14.01,2013-07-06 12:51:00,
2013-07-06 08:56:00,84.1,74.5,30.12,West,275,0.0,0.0,73,0.00,,---,0.00,499.00,VWS V14.01,2013-07-06 12:56:00,
2013-07-06 09:01:00,84.2,74.2,30.12,WNW,291,0.0,0.0,72,0.00,,---,0.00,513.00,VWS V14.01,2013-07-06 13:01:00,
2013-07-06 09:06:00,84.4,74.4,30.12,West,262,0.0,0.0,72,0.00,,---,0.00,520.00,VWS V14.01,2013-07-06 13:06:00,
2013-07-06 09:11:00,84.1,73.7,30.12,West,273,0.0,0.0,71,0.00,,---,0.00,534.00,VWS V14.01,2013-07-06 13:11:00,
2013-07-06 09:16:00,84.5,74.5,30.12,West,259,0.0,0.0,72,0.00,,---,0.00,555.00,VWS V14.01,2013-07-06 13:16:00,
2013-07-06 09:21:00,84.5,74.5,30.12,WSW,249,0.0,0.0,72,0.00,,---,0.00,566.00,VWS V14.01,2013-07-06 13:21:00,
2013-07-06 09:26:00,85.3,74.8,30.12,West,259,0.0,0.0,71,0.00,,---,0.00,573.00,VWS V14.01,2013-07-06 13:26:00,
2013-07-06 09:31:00,85.6,74.7,30.11,SW,231,0.0,0.0,70,0.00,,---,0.00,587.00,VWS V14.01,2013-07-06 13:31:00,
2013-07-06 09:36:00,85.9,74.6,30.11,WNW,294,0.0,0.0,69,0.00,,---,0.00,605.00,VWS V14.01,2013-07-06 13:36:00,
2013-07-06 09:41:00,86.3,73.6,30.11,NW,320,0.0,0.0,66,0.00,,---,0.00,615.00,VWS V14.01,2013-07-06 13:41:00,
2013-07-06 09:46:00,86.8,73.6,30.11,NW,313,0.0,0.0,65,0.00,,---,0.00,640.00,VWS V14.01,2013-07-06 13:46:00,
2013-07-06 09:51:00,87.6,75.3,30.11,NW,313,0.0,0.0,67,0.00,,---,0.00,650.00,VWS V14.01,2013-07-06 13:51:00,
2013-07-06 09:56:00,87.6,74.4,30.10,South,179,0.0,0.0,65,0.00,,---,0.00,661.00,VWS V14.01,2013-07-06 13:56:00,
2013-07-06 10:01:00,86.9,73.7,30.10,SSW,194,0.0,0.0,65,0.00,,---,0.00,657.00,VWS V14.01,2013-07-06 14:01:00,
2013-07-06 10:06:00,87.4,74.2,30.10,West,279,0.0,0.0,65,0.00,,---,0.00,700.00,VWS V14.01,2013-07-06 14:06:00,
2013-07-06 10:11:00,88.0,73.8,30.10,NNE,22,0.0,0.0,63,0.00,,---,0.00,707.00,VWS V14.01,2013-07-06 14:11:00,
2013-07-06 10:12:00,88.0,73.8,30.10,North,355,0.0,0.0,63,0.00,,---,0.00,708.00,VWS V14.01,2013-07-06 14:12:00,
2013-07-06 10:17:00,88.2,74.0,30.10,ESE,118,0.0,0.0,63,0.00,,---,0.00,712.00,VWS V14.01,2013-07-06 14:17:00,
2013-07-06 10:22:00,87.9,73.3,30.10,South,181,0.0,0.0,62,0.00,,---,0.00,733.00,VWS V14.01,2013-07-06 14:22:00,
2013-07-06 10:26:00,87.0,73.8,30.10,West,259,0.0,0.0,65,0.00,,---,0.00,744.00,VWS V14.01,2013-07-06 14:26:00,
2013-07-06 10:31:00,88.2,74.5,30.10,West,274,0.0,0.0,64,0.00,,---,0.00,758.00,VWS V14.01,2013-07-06 14:31:00,
2013-07-06 10:36:00,88.5,73.3,30.10,SSW,198,0.0,0.0,61,0.00,,---,0.00,766.00,VWS V14.01,2013-07-06 14:36:00,
2013-07-06 10:41:00,87.8,73.6,30.10,WNW,302,0.0,0.0,63,0.00,,---,0.00,770.00,VWS V14.01,2013-07-06 14:41:00,
2013-07-06 10:46:00,89.0,73.8,30.10,WNW,299,0.0,0.0,61,0.00,,---,0.00,780.00,VWS V14.01,2013-07-06 14:46:00,
2013-07-06 10:51:00,89.2,73.5,30.10,West,276,0.0,0.0,60,0.00,,---,0.00,796.00,VWS V14.01,2013-07-06 14:51:00,
2013-07-06 10:56:00,90.0,73.2,30.10,West,279,0.0,0.0,58,0.00,,---,0.00,800.00,VWS V14.01,2013-07-06 14:56:00,
2013-07-06 11:01:00,89.5,72.8,30.10,SW,236,0.0,0.0,58,0.00,,---,0.00,819.00,VWS V14.01,2013-07-06 15:01:00,
2013-07-06 11:06:00,89.5,72.8,30.10,WSW,246,0.0,0.0,58,0.00,,---,0.00,819.00,VWS V14.01,2013-07-06 15:06:00,
2013-07-06 11:11:00,89.1,72.9,30.10,SW,224,0.0,0.0,59,0.00,,---,0.00,823.00,VWS V14.01,2013-07-06 15:11:00,
2013-07-06 11:16:00,90.7,72.9,30.10,NW,311,0.0,0.0,56,0.00,,---,0.00,837.00,VWS V14.01,2013-07-06 15:16:00,
2013-07-06 11:21:00,90.7,73.4,30.10,WSW,240,0.0,0.0,57,0.00,,---,0.00,861.00,VWS V14.01,2013-07-06 15:21:00,
2013-07-06 11:26:00,90.7,73.9,30.10,West,266,0.0,0.0,58,0.00,,---,0.00,918.00,VWS V14.01,2013-07-06 15:26:00,
2013-07-06 11:31:00,91.3,73.4,30.10,WNW,301,0.0,0.0,56,0.00,,---,0.00,877.00,VWS V14.01,2013-07-06 15:31:00,
2013-07-06 11:36:00,90.2,72.9,30.10,West,281,0.0,0.0,57,0.00,,---,0.00,888.00,VWS V14.01,2013-07-06 15:36:00,
2013-07-06 11:41:00,92.1,73.1,30.09,SW,227,0.0,0.0,54,0.00,,---,0.00,889.00,VWS V14.01,2013-07-06 15:41:00,
2013-07-06 11:46:00,92.0,72.4,30.10,South,188,0.0,0.0,53,0.00,,---,0.00,898.00,VWS V14.01,2013-07-06 15:46:00,
2013-07-06 11:51:00,92.2,71.5,30.10,WSW,249,0.0,0.0,51,0.00,,---,0.00,946.00,VWS V14.01,2013-07-06 15:51:00,
2013-07-06 11:56:00,92.4,72.2,30.10,West,274,0.0,0.0,52,0.00,,---,0.00,972.00,VWS V14.01,2013-07-06 15:56:00,
2013-07-06 12:01:00,92.3,73.3,30.10,SSW,212,0.0,0.0,54,0.00,,---,0.00,947.00,VWS V14.01,2013-07-06 16:01:00,
2013-07-06 12:06:00,91.5,72.5,30.09,WNW,286,0.0,0.0,54,0.00,,---,0.00,1039.00,VWS V14.01,2013-07-06 16:06:00,
2013-07-06 12:12:00,90.8,72.9,30.09,South,188,0.0,0.0,56,0.00,,---,0.00,1039.00,VWS V14.01,2013-07-06 16:12:00,
2013-07-06 12:17:00,91.3,72.3,30.09,West,265,0.0,0.0,54,0.00,,---,0.00,1020.00,VWS V14.01,2013-07-06 16:17:00,
2013-07-06 12:22:00,92.2,73.2,30.09,NNW,337,0.0,0.0,54,0.00,,---,0.00,925.00,VWS V14.01,2013-07-06 16:22:00,
2013-07-06 12:27:00,92.4,72.8,30.09,WNW,288,0.0,0.0,53,0.00,,---,0.00,935.00,VWS V14.01,2013-07-06 16:27:00,
2013-07-06 12:33:00,91.3,71.8,30.09,WSW,252,0.0,0.0,53,0.00,,---,0.00,947.00,VWS V14.01,2013-07-06 16:33:00,
2013-07-06 12:38:00,91.6,72.6,30.09,WNW,296,0.0,0.0,54,0.00,,---,0.00,972.00,VWS V14.01,2013-07-06 16:38:00,
2013-07-06 12:43:00,92.5,72.3,30.09,WSW,253,0.0,0.0,52,0.00,,---,0.00,962.00,VWS V14.01,2013-07-06 16:43:00,
2013-07-06 12:48:00,92.6,72.4,30.09,WNW,292,0.0,0.0,52,0.00,,---,0.00,962.00,VWS V14.01,2013-07-06 16:48:00,
2013-07-06 12:53:00,93.2,72.4,30.09,West,277,0.0,0.0,51,0.00,,---,0.00,378.00,VWS V14.01,2013-07-06 16:53:00,
2013-07-06 12:58:00,93.2,72.4,30.08,NNW,332,0.0,0.0,51,0.00,,---,0.00,951.00,VWS V14.01,2013-07-06 16:58:00,
2013-07-06 13:03:00,93.5,71.5,30.08,WNW,288,0.0,0.0,49,0.00,,---,0.00,972.00,VWS V14.01,2013-07-06 17:03:00,
2013-07-06 13:08:00,94.2,71.5,30.08,South,189,0.0,0.0,48,0.00,,---,0.00,939.00,VWS V14.01,2013-07-06 17:08:00,
2013-07-06 13:13:00,93.8,71.8,30.08,WNW,285,0.0,0.0,49,0.00,,---,0.00,949.00,VWS V14.01,2013-07-06 17:13:00,
2013-07-06 13:18:00,93.5,72.7,30.08,WNW,302,0.0,0.0,51,0.00,,---,0.00,935.00,VWS V14.01,2013-07-06 17:18:00,
2013-07-06 13:24:00,93.6,72.2,30.08,WNW,284,0.0,0.0,50,0.00,,---,0.00,935.00,VWS V14.01,2013-07-06 17:24:00,
2013-07-06 13:29:00,93.0,72.2,30.08,WNW,292,0.0,0.0,51,0.00,,---,0.00,972.00,VWS V14.01,2013-07-06 17:29:00,
2013-07-06 13:34:00,93.4,71.4,30.08,West,279,0.0,0.0,49,0.00,,---,0.00,211.00,VWS V14.01,2013-07-06 17:34:00,
2013-07-06 13:39:00,93.1,71.7,30.07,SW,216,0.0,0.0,50,0.00,,---,0.00,1058.00,VWS V14.01,2013-07-06 17:39:00,
2013-07-06 13:45:00,93.0,72.8,30.07,NW,318,0.0,0.0,52,0.00,,---,0.00,445.00,VWS V14.01,2013-07-06 17:45:00,
2013-07-06 13:50:00,92.6,73.0,30.07,West,265,0.0,0.0,53,0.00,,---,0.00,969.00,VWS V14.01,2013-07-06 17:50:00,
2013-07-06 13:55:00,92.9,72.1,30.07,West,281,0.0,0.0,51,0.00,,---,0.00,960.00,VWS V14.01,2013-07-06 17:55:00,
2013-07-06 14:00:00,93.2,71.8,30.07,WNW,288,0.0,0.0,50,0.00,,---,0.00,443.00,VWS V14.01,2013-07-06 18:00:00,
2013-07-06 14:05:00,94.9,73.4,30.07,WNW,293,0.0,0.0,50,0.00,,---,0.00,1011.00,VWS V14.01,2013-07-06 18:05:00,
2013-07-06 14:10:00,93.9,71.8,30.07,NW,320,0.0,0.0,49,0.00,,---,0.00,218.00,VWS V14.01,2013-07-06 18:10:00,
2013-07-06 14:15:00,93.5,72.1,30.07,WSW,240,0.0,0.0,50,0.00,,---,0.00,930.00,VWS V14.01,2013-07-06 18:15:00,
2013-07-06 14:21:00,93.9,73.0,30.07,SW,235,0.0,0.0,51,0.00,,---,0.00,831.00,VWS V14.01,2013-07-06 18:21:00,
2013-07-06 14:27:00,93.9,72.4,30.07,WNW,299,0.0,0.0,50,0.00,,---,0.00,861.00,VWS V14.01,2013-07-06 18:27:00,
2013-07-06 14:32:00,94.3,71.6,30.07,WSW,250,0.0,0.0,48,0.00,,---,0.00,232.00,VWS V14.01,2013-07-06 18:32:00,
2013-07-06 14:37:00,92.6,71.8,30.07,SE,136,0.0,0.0,51,0.00,,---,0.00,320.00,VWS V14.01,2013-07-06 18:37:00,
2013-07-06 14:42:00,92.8,72.6,30.06,West,266,0.0,0.0,52,0.00,,---,0.00,893.00,VWS V14.01,2013-07-06 18:42:00,
2013-07-06 14:47:00,93.9,72.4,30.06,WSW,248,0.0,0.0,50,0.00,,---,0.00,863.00,VWS V14.01,2013-07-06 18:47:00,
2013-07-06 14:52:00,94.5,71.8,30.06,NW,305,0.0,0.0,48,0.00,,---,0.00,860.00,VWS V14.01,2013-07-06 18:52:00,
2013-07-06 14:57:00,94.7,72.0,30.06,SE,146,0.0,0.0,48,0.00,,---,0.00,805.00,VWS V14.01,2013-07-06 18:57:00,
2013-07-06 15:02:00,93.1,72.3,30.06,SW,234,0.0,0.0,51,0.00,,---,0.00,701.00,VWS V14.01,2013-07-06 19:02:00,
2013-07-06 15:07:00,93.5,72.7,30.06,NW,312,0.0,0.0,51,0.00,,---,0.00,900.00,VWS V14.01,2013-07-06 19:07:00,
2013-07-06 15:12:00,93.5,72.7,30.06,WSW,252,0.0,0.0,51,0.00,,---,0.00,244.00,VWS V14.01,2013-07-06 19:12:00,
2013-07-06 15:17:00,93.3,73.1,30.05,WSW,242,0.0,0.0,52,0.00,,---,0.00,826.00,VWS V14.01,2013-07-06 19:17:00,
2013-07-06 15:23:00,94.2,73.3,30.05,West,279,0.0,0.0,51,0.00,,---,0.00,803.00,VWS V14.01,2013-07-06 19:23:00,
2013-07-06 15:28:00,94.2,72.7,30.05,NW,317,0.0,0.0,50,0.00,,---,0.00,788.00,VWS V14.01,2013-07-06 19:28:00,
2013-07-06 15:33:00,94.3,72.8,30.05,SSW,210,0.0,0.0,50,0.00,,---,0.00,789.00,VWS V14.01,2013-07-06 19:33:00,
2013-07-06 15:38:00,94.6,73.1,30.05,WNW,290,0.0,0.0,50,0.00,,---,0.00,722.00,VWS V14.01,2013-07-06 19:38:00,
2013-07-06 15:44:00,94.0,72.5,30.05,SW,220,0.0,0.0,50,0.00,,---,0.00,735.00,VWS V14.01,2013-07-06 19:44:00,
2013-07-06 15:49:00,94.0,73.1,30.05,WNW,302,0.0,0.0,51,0.00,,---,0.00,740.00,VWS V14.01,2013-07-06 19:49:00,
2013-07-06 15:54:00,94.6,73.1,30.05,NW,308,0.0,0.0,50,0.00,,---,0.00,728.00,VWS V14.01,2013-07-06 19:54:00,
2013-07-06 15:59:00,94.1,72.6,30.05,SW,218,0.0,0.0,50,0.00,,---,0.00,731.00,VWS V14.01,2013-07-06 19:59:00,
2013-07-06 16:04:00,94.2,72.7,30.05,NNW,330,0.0,0.0,50,0.00,,---,0.00,728.00,VWS V14.01,2013-07-06 20:04:00,
2013-07-06 16:09:00,94.2,72.7,30.04,WSW,256,0.0,0.0,50,0.00,,---,0.00,729.00,VWS V14.01,2013-07-06 20:09:00,
2013-07-06 16:14:00,93.9,73.0,30.04,WSW,250,0.0,0.0,51,0.00,,---,0.00,680.00,VWS V14.01,2013-07-06 20:14:00,
2013-07-06 16:19:00,94.9,72.8,30.04,WNW,302,0.0,0.0,49,0.00,,---,0.00,633.00,VWS V14.01,2013-07-06 20:19:00,
2013-07-06 16:25:00,94.0,72.5,30.04,WSW,252,0.0,0.0,50,0.00,,---,0.00,671.00,VWS V14.01,2013-07-06 20:25:00,
2013-07-06 16:30:00,94.2,72.1,30.04,WSW,252,0.0,0.0,49,0.00,,---,0.00,670.00,VWS V14.01,2013-07-06 20:30:00,
2013-07-06 16:35:00,94.5,71.8,30.04,WNW,284,0.0,0.0,48,0.00,,---,0.00,606.00,VWS V14.01,2013-07-06 20:35:00,
2013-07-06 16:40:00,93.6,72.2,30.04,SW,225,0.0,0.0,50,0.00,,---,0.00,587.00,VWS V14.01,2013-07-06 20:40:00,
2013-07-06 16:45:00,93.5,72.1,30.04,SW,236,0.0,0.0,50,0.00,,---,0.00,575.00,VWS V14.01,2013-07-06 20:45:00,
2013-07-06 16:51:00,93.4,72.6,30.04,NW,309,0.0,0.0,51,0.00,,---,0.00,584.00,VWS V14.01,2013-07-06 20:51:00,
2013-07-06 16:56:00,94.2,71.5,30.03,WNW,290,0.0,0.0,48,0.00,,---,0.00,584.00,VWS V14.01,2013-07-06 20:56:00,
2013-07-06 17:01:00,94.1,72.6,30.03,WNW,290,0.0,0.0,50,0.00,,---,0.00,557.00,VWS V14.01,2013-07-06 21:01:00,
2013-07-06 17:06:00,93.0,71.6,30.03,West,259,0.0,0.0,50,0.00,,---,0.00,545.00,VWS V14.01,2013-07-06 21:06:00,
2013-07-06 17:11:00,93.7,72.3,30.03,West,262,0.0,0.0,50,0.00,,---,0.00,529.00,VWS V14.01,2013-07-06 21:11:00,
2013-07-06 17:16:00,93.9,72.4,30.03,WSW,255,0.0,0.0,50,0.00,,---,0.00,524.00,VWS V14.01,2013-07-06 21:16:00,
2013-07-06 17:21:00,93.6,73.3,30.03,WNW,288,0.0,0.0,52,0.00,,---,0.00,176.00,VWS V14.01,2013-07-06 21:21:00,
2013-07-06 17:27:00,93.2,72.4,30.03,NW,312,0.0,0.0,51,0.00,,---,0.00,512.00,VWS V14.01,2013-07-06 21:27:00,
2013-07-06 17:32:00,94.1,73.2,30.02,SW,234,0.0,0.0,51,0.00,,---,0.00,454.00,VWS V14.01,2013-07-06 21:32:00,
2013-07-06 17:37:00,94.4,72.3,30.02,SW,221,0.0,0.0,49,0.00,,---,0.00,420.00,VWS V14.01,2013-07-06 21:37:00,
2013-07-06 17:43:00,93.3,71.3,30.02,NW,309,0.0,0.0,49,0.00,,---,0.00,397.00,VWS V14.01,2013-07-06 21:43:00,
2013-07-06 17:48:00,93.0,71.6,30.02,West,267,0.0,0.0,50,0.00,,---,0.00,380.00,VWS V14.01,2013-07-06 21:48:00,
2013-07-06 17:53:00,92.9,71.5,30.02,WSW,244,0.0,0.0,50,0.00,,---,0.00,374.00,VWS V14.01,2013-07-06 21:53:00,
2013-07-06 17:59:00,92.5,71.8,30.02,SW,226,0.0,0.0,51,0.00,,---,0.00,362.00,VWS V14.01,2013-07-06 21:59:00,
2013-07-06 18:04:00,92.6,71.8,30.02,West,259,0.0,0.0,51,0.00,,---,0.00,360.00,VWS V14.01,2013-07-06 22:04:00,
2013-07-06 18:09:00,93.1,71.7,30.02,West,266,0.0,0.0,50,0.00,,---,0.00,345.00,VWS V14.01,2013-07-06 22:09:00,
2013-07-06 18:14:00,93.2,72.4,30.02,WNW,284,0.0,0.0,51,0.00,,---,0.00,325.00,VWS V14.01,2013-07-06 22:14:00,
2013-07-06 18:20:00,92.4,73.3,30.02,WNW,284,0.0,0.0,54,0.00,,---,0.00,313.00,VWS V14.01,2013-07-06 22:20:00,
2013-07-06 18:25:00,92.4,71.7,30.02,South,186,0.0,0.0,51,0.00,,---,0.00,301.00,VWS V14.01,2013-07-06 22:25:00,
2013-07-06 18:30:00,92.4,71.7,30.02,West,278,0.0,0.0,51,0.00,,---,0.00,276.00,VWS V14.01,2013-07-06 22:30:00,
2013-07-06 18:35:00,92.0,71.9,30.02,SSW,213,0.0,0.0,52,0.00,,---,0.00,258.00,VWS V14.01,2013-07-06 22:35:00,
2013-07-06 18:40:00,91.9,72.3,30.01,SSW,196,0.0,0.0,53,0.00,,---,0.00,243.00,VWS V14.01,2013-07-06 22:40:00,
2013-07-06 18:46:00,91.5,72.0,30.01,WSW,254,0.0,0.0,53,0.00,,---,0.00,223.00,VWS V14.01,2013-07-06 22:46:00,
2013-07-06 18:51:00,92.5,73.4,30.01,NW,311,0.0,0.0,54,0.00,,---,0.00,207.00,VWS V14.01,2013-07-06 22:51:00,
2013-07-06 18:56:00,91.7,72.2,30.01,West,280,0.0,0.0,53,0.00,,---,0.00,192.00,VWS V14.01,2013-07-06 22:56:00,
2013-07-06 19:01:00,91.6,72.1,30.01,SSW,205,0.0,0.0,53,0.00,,---,0.00,179.00,VWS V14.01,2013-07-06 23:01:00,
2013-07-06 19:06:00,91.1,72.7,30.01,WSW,247,0.0,0.0,55,0.00,,---,0.00,163.00,VWS V14.01,2013-07-06 23:06:00,
2013-07-06 19:11:00,91.1,72.2,30.01,West,281,0.0,0.0,54,0.00,,---,0.00,146.00,VWS V14.01,2013-07-06 23:11:00,
2013-07-06 19:16:00,90.3,71.4,30.01,SW,232,0.0,0.0,54,0.00,,---,0.00,130.00,VWS V14.01,2013-07-06 23:16:00,
2013-07-06 19:21:00,90.4,72.6,30.01,West,275,0.0,0.0,56,0.00,,---,0.00,113.00,VWS V14.01,2013-07-06 23:21:00,
2013-07-06 19:27:00,90.7,72.3,30.01,WNW,283,0.0,0.0,55,0.00,,---,0.00,95.00,VWS V14.01,2013-07-06 23:27:00,
2013-07-06 19:32:00,90.5,72.7,30.01,South,184,0.0,0.0,56,0.00,,---,0.00,77.00,VWS V14.01,2013-07-06 23:32:00,
2013-07-06 19:37:00,90.4,72.6,30.01,WNW,285,0.0,0.0,56,0.00,,---,0.00,62.00,VWS V14.01,2013-07-06 23:37:00,
2013-07-06 19:42:00,90.3,73.0,30.01,WNW,302,0.0,0.0,57,0.00,,---,0.00,58.00,VWS V14.01,2013-07-06 23:42:00,
2013-07-06 19:47:00,89.7,72.4,30.01,WNW,291,0.0,0.0,57,0.00,,---,0.00,47.00,VWS V14.01,2013-07-06 23:47:00,
2013-07-06 19:52:00,89.8,72.6,30.01,WNW,291,0.0,0.0,57,0.00,,---,0.00,37.00,VWS V14.01,2013-07-06 23:52:00,
2013-07-06 19:57:00,89.3,72.1,30.01,WNW,291,0.0,0.0,57,0.00,,---,0.00,28.00,VWS V14.01,2013-07-06 23:57:00,
2013-07-06 20:02:00,89.0,73.3,30.01,WNW,291,0.0,0.0,60,0.00,,---,0.00,19.00,VWS V14.01,2013-07-07 00:02:00,
2013-07-06 20:07:00,88.5,72.3,30.01,WNW,291,0.0,0.0,59,0.00,,---,0.00,16.00,VWS V14.01,2013-07-07 00:07:00,
2013-07-06 20:13:00,87.9,72.3,30.01,WNW,291,0.0,0.0,60,0.00,,---,0.00,12.00,VWS V14.01,2013-07-07 00:13:00,
2013-07-06 20:18:00,87.8,72.7,30.01,WNW,291,0.0,0.0,61,0.00,,---,0.00,11.00,VWS V14.01,2013-07-07 00:18:00,
2013-07-06 20:23:00,87.7,72.6,30.01,WNW,291,0.0,0.0,61,0.00,,---,0.00,7.00,VWS V14.01,2013-07-07 00:23:00,
2013-07-06 20:29:00,87.4,71.8,30.01,WNW,291,0.0,0.0,60,0.00,,---,0.00,5.00,VWS V14.01,2013-07-07 00:29:00,
2013-07-06 20:34:00,87.3,71.7,30.01,WNW,291,0.0,0.0,60,0.00,,---,0.00,0.00,VWS V14.01,2013-07-07 00:34:00,
2013-07-06 20:39:00,87.4,72.3,30.01,WNW,291,0.0,0.0,61,0.00,,---,0.00,0.00,VWS V14.01,2013-07-07 00:39:00,
2013-07-06 20:44:00,87.2,72.1,30.01,WNW,291,0.0,0.0,61,0.00,,---,0.00,0.00,VWS V14.01,2013-07-07 00:44:00,
2013-07-06 20:49:00,87.0,71.9,30.01,WNW,291,0.0,0.0,61,0.00,,---,0.00,0.00,VWS V14.01,2013-07-07 00:49:00,
2013-07-06 20:54:00,86.9,72.8,30.01,WNW,291,0.0,0.0,63,0.00,,---,0.00,0.00,VWS V14.01,2013-07-07 00:54:00,
2013-07-06 20:59:00,86.9,72.3,30.01,WNW,291,0.0,0.0,62,0.00,,---,0.00,0.00,VWS V14.01,2013-07-07 00:59:00,
2013-07-06 21:04:00,86.9,72.3,30.01,WNW,291,0.0,0.0,62,0.00,,---,0.00,0.00,VWS V14.01,2013-07-07 01:04:00,
2013-07-06 21:10:00,87.0,72.4,30.01,WNW,291,0.0,0.0,62,0.00,,---,0.00,0.00,VWS V14.01,2013-07-07 01:10:00,
2013-07-06 21:15:00,87.8,73.2,30.02,WNW,291,0.0,0.0,62,0.00,,---,0.00,0.00,VWS V14.01,2013-07-07 01:15:00,
2013-07-06 21:20:00,88.0,73.4,30.02,WNW,291,0.0,0.0,62,0.00,,---,0.00,0.00,VWS V14.01,2013-07-07 01:20:00,
2013-07-06 21:25:00,87.3,72.2,30.02,WNW,291,0.0,0.0,61,0.00,,---,0.00,0.00,VWS V14.01,2013-07-07 01:25:00,
2013-07-06 21:30:00,86.9,72.3,30.02,WNW,291,0.0,0.0,62,0.00,,---,0.00,0.00,VWS V14.01,2013-07-07 01:30:00,
2013-07-06 21:35:00,85.8,72.2,30.02,WNW,291,0.0,0.0,64,0.00,,---,0.00,0.00,VWS V14.01,2013-07-07 01:35:00,
2013-07-06 21:41:00,85.4,72.8,30.03,WNW,291,0.0,0.0,66,0.00,,---,0.00,0.00,VWS V14.01,2013-07-07 01:41:00,
2013-07-06 21:46:00,86.5,72.9,30.03,WNW,291,0.0,0.0,64,0.00,,---,0.00,0.00,VWS V14.01,2013-07-07 01:46:00,
2013-07-06 21:51:00,86.5,72.9,30.03,WNW,291,0.0,0.0,64,0.00,,---,0.00,0.00,VWS V14.01,2013-07-07 01:51:00,
2013-07-06 21:56:00,85.2,72.1,30.03,WNW,291,0.0,0.0,65,0.00,,---,0.00,0.00,VWS V14.01,2013-07-07 01:56:00,
2013-07-06 22:01:00,85.0,72.4,30.03,WNW,291,0.0,0.0,66,0.00,,---,0.00,0.00,VWS V14.01,2013-07-07 02:01:00,
2013-07-06 22:06:00,85.0,72.4,30.03,WNW,291,0.0,0.0,66,0.00,,---,0.00,0.00,VWS V14.01,2013-07-07 02:06:00,
2013-07-06 22:11:00,84.9,72.7,30.04,WNW,291,0.0,0.0,67,0.00,,---,0.00,0.00,VWS V14.01,2013-07-07 02:11:00,
2013-07-06 22:16:00,85.0,72.8,30.04,WNW,291,0.0,0.0,67,0.00,,---,0.00,0.00,VWS V14.01,2013-07-07 02:16:00,
2013-07-06 22:21:00,84.7,72.1,30.04,WNW,291,0.0,0.0,66,0.00,,---,0.00,0.00,VWS V14.01,2013-07-07 02:21:00,
2013-07-06 22:26:00,84.6,72.0,30.04,WNW,290,0.0,0.0,66,0.00,,---,0.00,0.00,VWS V14.01,2013-07-07 02:26:00,
2013-07-06 22:32:00,84.4,72.2,30.04,SSW,211,0.0,0.0,67,0.00,,---,0.00,0.00,VWS V14.01,2013-07-07 02:32:00,
2013-07-06 22:37:00,84.3,72.6,30.04,SW,227,0.0,0.0,68,0.00,,---,0.00,0.00,VWS V14.01,2013-07-07 02:37:00,
2013-07-06 22:42:00,84.4,72.7,30.04,SW,225,0.0,0.0,68,0.00,,---,0.00,0.00,VWS V14.01,2013-07-07 02:42:00,
2013-07-06 22:47:00,84.5,72.3,30.04,SW,225,0.0,0.0,67,0.00,,---,0.00,0.00,VWS V14.01,2013-07-07 02:47:00,
2013-07-06 22:52:00,84.2,72.5,30.04,SW,232,0.0,0.0,68,0.00,,---,0.00,0.00,VWS V14.01,2013-07-07 02:52:00,
2013-07-06 22:57:00,84.2,72.5,30.04,SW,228,0.0,0.0,68,0.00,,---,0.00,0.00,VWS V14.01,2013-07-07 02:57:00,
2013-07-06 23:02:00,84.0,72.7,30.04,SW,219,0.0,0.0,69,0.00,,---,0.00,0.00,VWS V14.01,2013-07-07 03:02:00,
2013-07-06 23:07:00,84.1,72.8,30.04,SW,226,0.0,0.0,69,0.00,,---,0.00,0.00,VWS V14.01,2013-07-07 03:07:00,
2013-07-06 23:12:00,83.9,72.7,30.05,SW,218,0.0,0.0,69,0.00,,---,0.00,0.00,VWS V14.01,2013-07-07 03:12:00,
2013-07-06 23:18:00,84.0,73.2,30.05,SSW,193,0.0,0.0,70,0.00,,---,0.00,0.00,VWS V14.01,2013-07-07 03:18:00,
2013-07-06 23:23:00,84.0,73.2,30.05,SW,227,0.0,0.0,70,0.00,,---,0.00,0.00,VWS V14.01,2013-07-07 03:23:00,
2013-07-06 23:28:00,84.0,73.2,30.05,SW,215,0.0,0.0,70,0.00,,---,0.00,0.00,VWS V14.01,2013-07-07 03:28:00,
2013-07-06 23:33:00,84.1,72.8,30.05,WSW,252,0.0,0.0,69,0.00,,---,0.00,0.00,VWS V14.01,2013-07-07 03:33:00,
2013-07-06 23:38:00,83.9,73.1,30.05,West,268,0.0,0.0,70,0.00,,---,0.00,0.00,VWS V14.01,2013-07-07 03:38:00,
2013-07-06 23:43:00,83.9,73.1,30.05,SW,234,0.0,0.0,70,0.00,,---,0.00,0.00,VWS V14.01,2013-07-07 03:43:00,
2013-07-06 23:48:00,83.9,73.1,30.05,SW,228,0.0,0.0,70,0.00,,---,0.00,0.00,VWS V14.01,2013-07-07 03:48:00,
2013-07-06 23:54:00,83.8,73.0,30.05,West,266,0.0,0.0,70,0.00,,---,0.00,0.00,VWS V14.01,2013-07-07 03:54:00,
2013-07-06 23:59:00,83.8,73.0,30.05,SW,227,0.0,0.0,70,0.00,,---,0.00,0.00,VWS V14.01,2013-07-07 03:59:00,